VA3DLF Weather Reports


time (UTC)temp
C
wind
direction
speed
KPH
gust
KPH
rain 1hr
cm
rain 24hr
cm
rain mn
cm
humidity
%
barometer
mb
20171022062735 10 200 1.6 3.2 0.00 0.00 0.00
20171022062235 10 201 1.6 4.8 0.00 0.00 0.00
20171022061734 10 197 0.0 4.8 0.00 0.00 0.00
20171022061234 10 136 1.6 3.2 0.00 0.00 0.00
20171022060230 9 113 0.0 0.0 0.00 0.00 0.00
20171022055732 9 122 0.0 0.0 0.00 0.00 0.00
20171022055232 10 122 3.2 0.0 0.00 0.00 0.00
20171022054230 10 193 3.2 3.2 0.00 0.00 0.00
20171022052729 9 80 0.0 0.0 0.00 0.00 0.00
20171022052229 9 117 0.0 0.0 0.00 0.00 0.00
20171022051226 9 96 1.6 0.0 0.00 0.00 0.00
20171022050224 9 97 0.0 0.0 0.00 0.00 0.00
20171022043220 9 120 1.6 1.6 0.00 0.00 0.00
20171022042220 10 172 0.0 0.0 0.00 0.00 0.00
20171022035217 9 104 1.6 3.2 0.00 0.00 0.00
20171022034215 10 105 0.0 0.0 0.00 0.00 0.00
20171022031710 10 82 0.0 0.0 0.00 0.00 0.00
20171022031211 10 37 1.6 0.0 0.00 0.00 0.00
20171022030712 10 60 0.0 0.0 0.00 0.00 0.00
20171022030209 10 104 0.0 1.6 0.00 0.00 0.00
20171022025710 11 135 1.6 1.6 0.00 0.00 0.00
20171022025211 11 156 3.2 3.2 0.00 0.00 0.00
20171022024707 11 105 3.2 1.6 0.00 0.00 0.00
20171022023708 11 105 1.6 1.6 0.00 0.00 0.00
20171022023206 11 79 3.2 0.0 0.00 0.00 0.00
20171022022707 10 108 0.0 1.6 0.00 0.00 0.00
20171022021204 10 139 3.2 3.2 0.00 0.00 0.00
20171022015702 10 138 1.6 4.8 0.00 0.00 0.00
20171022015202 10 159 0.0 0.0 0.00 0.00 0.00
20171022014202 10 159 0.0 0.0 0.00 0.00 0.00
20171022013701 10 159 0.0 0.0 0.00 0.00 0.00
20171022012655 11 159 0.0 0.0 0.00 0.00 0.00
20171022012156 11 159 0.0 0.0 0.00 0.00 0.00
20171022011154 11 159 0.0 0.0 0.00 0.00 0.00
20171022010655 11 159 0.0 0.0 0.00 0.00 0.00
20171022010153 11 159 0.0 0.0 0.00 0.00 0.00
20171022005651 11 159 0.0 0.0 0.00 0.00 0.00
20171022005152 11 159 0.0 0.0 0.00 0.00 0.00
20171022004150 11 159 0.0 0.0 0.00 0.00 0.00
20171022003651 12 159 0.0 0.0 0.00 0.00 0.00
20171022002648 12 159 0.0 0.0 0.00 0.00 0.00
20171022002149 12 159 0.0 0.0 0.00 0.00 0.00
20171022001647 12 159 0.0 0.0 0.00 0.00 0.00
20171022001147 12 159 0.0 0.0 0.00 0.00 0.00
20171022000647 12 159 0.0 0.0 0.00 0.00 0.00
20171022000146 12 149 1.6 0.0 0.00 0.00 0.00
20171021235645 13 203 0.0 0.0 0.00 0.00 0.00
20171021234642 13 239 0.0 1.6 0.00 0.00 0.00
20171021234142 13 221 3.2 4.8 0.00 0.00 0.00
20171021233643 13 228 3.2 4.8 0.00 0.00 0.00
20171021233141 13 242 3.2 4.8 0.00 0.00 0.00
20171021231638 13 176 4.8 4.8 0.00 0.00 0.00
20171021225634 13 180 1.6 3.2 0.00 0.00 0.00
20171021224632 13 169 1.6 1.6 0.00 0.00 0.00
20171021223633 13 128 1.6 1.6 0.00 0.00 0.00
20171021223131 13 98 1.6 0.0 0.00 0.00 0.00
20171021222630 14 184 3.2 3.2 0.00 0.00 0.00
20171021221129 15 181 3.2 1.6 0.00 0.00 0.00
20171021220630 15 170 3.2 4.8 0.00 0.00 0.00
20171021220127 16 86 0.0 0.0 0.00 0.00 0.00
20171021215628 16 162 1.6 3.2 0.00 0.00 0.00
20171021215129 16 156 3.2 4.8 0.00 0.00 0.00
20171021212625 18 186 1.6 3.2 0.00 0.00 0.00
20171021212125 18 195 3.2 3.2 0.00 0.00 0.00
20171021211623 18 184 1.6 1.6 0.00 0.00 0.00
20171021204619 18 225 8.0 4.8 0.00 0.00 0.00
20171021204119 18 242 8.0 9.7 0.00 0.00 0.00
20171021203620 18 214 6.4 6.4 0.00 0.00 0.00
20171021203118 18 256 8.0 6.4 0.00 0.00 0.00
20171021202618 18 207 8.0 4.8 0.00 0.00 0.00
20171021202119 19 224 8.0 12.9 0.00 0.00 0.00
20171021201117 19 255 11.3 14.5 0.00 0.00 0.00
20171021200618 20 214 11.3 8.0 0.00 0.00 0.00
20171021200114 20 232 6.4 9.7 0.00 0.00 0.00
20171021195615 19 270 6.4 6.4 0.00 0.00 0.00
20171021195116 19 179 9.7 6.4 0.00 0.00 0.00
20171021194114 19 183 11.3 12.9 0.00 0.00 0.00
20171021193615 19 224 9.7 11.3 0.00 0.00 0.00
20171021192615 20 218 9.7 8.0 0.00 0.00 0.00
20171021192113 20 194 9.7 8.0 0.00 0.00 0.00
20171021191610 20 191 4.8 1.6 0.00 0.00 0.00
20171021191112 20 183 8.0 9.7 0.00 0.00 0.00
20171021190610 20 245 9.7 6.4 0.00 0.00 0.00
20171021190108 20 236 8.0 9.7 0.00 0.00 0.00
20171021185609 20 186 4.8 4.8 0.00 0.00 0.00
20171021184607 19 212 6.4 6.4 0.00 0.00 0.00
20171021183608 19 229 4.8 8.0 0.00 0.00 0.00
20171021183105 19 215 4.8 6.4 0.00 0.00 0.00
20171021182606 19 226 6.4 6.4 0.00 0.00 0.00
20171021182106 19 207 9.7 9.7 0.00 0.00 0.00
20171021181604 19 218 6.4 3.2 0.00 0.00 0.00
20171021181105 19 155 8.0 6.4 0.00 0.00 0.00
20171021180605 20 208 6.4 11.3 0.00 0.00 0.00
20171021180103 20 240 4.8 6.4 0.00 0.00 0.00
20171021175604 19 200 6.4 8.0 0.00 0.00 0.00
20171021175104 18 174 6.4 8.0 0.00 0.00 0.00
20171021174601 18 197 8.0 6.4 0.00 0.00 0.00
20171021173602 19 256 8.0 3.2 0.00 0.00 0.00
20171021173100 19 224 6.4 3.2 0.00 0.00 0.00
20171021172600 18 210 9.7 11.3 0.00 0.00 0.00
20171021172101 19 231 3.2 9.7 0.00 0.00 0.00
20171021171558 19 215 8.0 6.4 0.00 0.00 0.00
20171021171059 18 245 8.0 8.0 0.00 0.00 0.00
20171021170600 19 231 6.4 9.7 0.00 0.00 0.00
20171021170056 18 239 8.0 4.8 0.00 0.00 0.00
20171021165559 19 204 8.0 8.0 0.00 0.00 0.00
20171021164555 18 218 8.0 4.8 0.00 0.00 0.00
20171021164056 18 236 11.3 11.3 0.00 0.00 0.00
20171021163556 18 212 9.7 9.7 0.00 0.00 0.00
20171021163053 18 245 9.7 6.4 0.00 0.00 0.00
20171021162553 19 198 8.0 8.0 0.00 0.00 0.00
20171021161551 18 290 8.0 3.2 0.00 0.00 0.00
20171021161051 19 266 3.2 6.4 0.00 0.00 0.00
20171021160551 19 212 6.4 8.0 0.00 0.00 0.00
20171021155546 19 248 6.4 8.0 0.00 0.00 0.00
20171021154544 20 236 9.7 8.0 0.00 0.00 0.00
20171021154044 20 274 8.0 9.7 0.00 0.00 0.00
20171021153545 20 263 9.7 11.3 0.00 0.00 0.00
20171021153042 20 264 8.0 4.8 0.00 0.00 0.00
20171021152543 19 302 9.7 6.4 0.00 0.00 0.00
20171021151541 18 291 9.7 8.0 0.00 0.00 0.00
20171021150542 18 250 8.0 8.0 0.00 0.00 0.00
20171021144538 17 256 9.7 8.0 0.00 0.00 0.00
20171021140033 16 205 9.7 8.0 0.00 0.00 0.00
20171021134639 15 235 4.8 4.8 0.00 0.00 0.00
20171021134531 15 235 4.8 4.8 0.00 0.00 0.00
20171021134032 15 245 4.8 4.8 0.00 0.00 0.00
20171021133101 15 248 4.8 8.0 0.00 0.00 0.00
20171021133029 15 248 4.8 8.0 0.00 0.00 0.00
20171021132530 15 221 9.7 11.3 0.00 0.00 0.00
20171021131027 13 224 4.8 6.4 0.00 0.00 0.00
20171021130528 13 240 6.4 4.8 0.00 0.00 0.00
20171021125526 12 207 1.6 6.4 0.00 0.00 0.00
20171021124525 12 229 1.6 3.2 0.00 0.00 0.00
20171021123021 10 211 1.6 1.6 0.00 0.00 0.00
20171021122521 10 160 0.0 0.0 0.00 0.00 0.00
20171021120520 8 160 0.0 0.0 0.00 0.00 0.00
20171021114514 8 163 1.6 1.6 0.00 0.00 0.00
20171021114014 8 214 0.0 0.0 0.00 0.00 0.00
20171021113012 8 191 3.2 3.2 0.00 0.00 0.00
20171021103010 9 271 0.0 0.0 0.00 0.00 0.00
20171021102505 9 271 0.0 0.0 0.00 0.00 0.00
20171021101500 9 271 0.0 0.0 0.00 0.00 0.00
20171021100502 9 260 3.2 1.6 0.00 0.00 0.00
20171021095457 9 236 0.0 0.0 0.00 0.00 0.00
20171021092455 9 250 3.2 1.6 0.00 0.00 0.00
20171021091454 9 238 0.0 0.0 0.00 0.00 0.00
20171021090954 9 267 1.6 1.6 0.00 0.00 0.00
20171021090455 9 274 1.6 1.6 0.00 0.00 0.00
20171021085950 9 278 1.6 1.6 0.00 0.00 0.00
20171021085450 9 256 3.2 3.2 0.00 0.00 0.00
20171021084449 9 267 3.2 1.6 0.00 0.00 0.00
20171021082445 9 267 1.6 3.2 0.00 0.00 0.00
20171021081442 9 270 3.2 3.2 0.00 0.00 0.00
20171021075940 9 239 1.6 1.6 0.00 0.00 0.00
20171021074941 9 201 0.0 0.0 0.00 0.00 0.00
20171021074438 9 194 0.0 0.0 0.00 0.00 0.00
20171021073013 9 193 3.2 0.0 0.00 0.00 0.00
20171021072936 9 193 3.2 0.0 0.00 0.00 0.00
20171021070436 9 246 3.2 3.2 0.00 0.00 0.00
20171021065432 9 204 1.6 1.6 0.00 0.00 0.00
20171021064429 9 205 3.2 3.2 0.00 0.00 0.00
20171021063431 9 201 3.2 1.6 0.00 0.00 0.00